Temp
11 11 11 11 10 10 10 10 9 9 10 10 10 10 10 10 10 9 9 8 8 8 7 8 8 8 9 9 9 9 8 8 8 8 8 8 8 8 8 8 8 8 8
11 11 11 11 10 10 10 10 9 9 10 10 9 10 10 10 10 10 9 9 9 9 9 9 8 8 8 8 8 8 8 8 8 8 8 8 8 8 8 8 8 8 8
11 11 11 11 10 10 10 9 9 9 9 9 9 9 9 9 9 9 9 9 9 9 9 8 8 8 8 8 8 8 8 8 8 8 8 8 8 8 7 7 7 8 8
10 10 10 10 10 10 10 9 9 9 9 9 9 9 9 9 9 9 9 9 9 9 8 8 8 8 7 7 8 7 7 7 7 8 8 7 7 7 7 7 7 7 7
10 10 10 10 10 10 9 9 9 9 9 8 8 8 8 8 8 8 8 8 8 8 8 8 7 7 7 7 7 7 7 7 7 7 7 7 7 7 7 7 7 7 7
10 10 10 10 9 9 9 9 9 9 9 8 8 8 8 8 8 8 8 7 7 7 7 7 7 7 7 7 7 7 7 7 7 7 6 6 6 6 6 6 6 6 6
10 10 10 10 10 9 9 9 9 9 9 8 8 8 8 8 7 7 7 7 7 7 7 7 7 7 7 7 6 6 6 6 6 6 6 6 6 6 6 6 6 6 6
10 10 9 10 10 9 9 9 9 8 8 8 8 8 8 7 7 7 7 7 7 7 7 7 6 6 6 6 6 6 6 6 6 6 6 6 6 6 6 6 6 5 6
10 10 9 9 9 9 9 9 9 9 8 8 8 8 8 7 7 7 7 7 7 7 7 6 6 6 6 6 6 6 6 6 6 6 6 6 6 6 6 6 6 6 5
9 9 9 9 9 9 9 9 9 9 8 8 8 8 8 7 7 7 7 7 7 7 7 6 6 6 6 6 6 6 6 6 6 6 6 6 6 6 6 6 6 5 5
9 9 9 9 9 9 8 8 8 8 8 8 8 8 8 7 7 7 7 7 7 7 7 6 6 6 6 6 6 6 6 6 6 6 6 6 6 5 5 5 5 5 5
9 9 9 9 9 9 8 8 8 8 8 8 8 8 8 8 7 7 7 7 7 7 7 7 6 6 6 6 6 6 6 6 6 6 6 6 5 5 5 5 5 5 5
8 9 9 9 9 9 8 8 8 8 8 8 8 8 8 8 7 7 7 7 7 7 7 7 7 7 6 6 6 6 6 6 6 6 6 6 6 6 6 5 5 5 5
7 7 8 9 9 9 9 8 8 8 8 8 8 8 8 8 7 7 7 7 7 7 7 7 7 6 6 6 6 6 6 6 6 6 6 6 5 5 5 5 5 5 5
8 8 8 8 9 9 9 8 8 8 8 8 8 8 8 8 8 7 7 7 7 7 7 6 6 6 6 6 6 6 6 6 6 6 5 5 5 5 5 5 5 5 5
8 8 8 8 8 9 8 8 8 8 8 8 8 8 8 8 8 7 7 7 7 7 7 6 6 6 6 6 6 6 6 5 5 5 5 5 5 4 4 4 4 4 4
7 7 8 7 7 8 8 8 8 8 8 8 8 8 8 8 7 7 7 7 7 6 6 6 6 6 6 6 5 5 5 5 5 5 5 5 5 4 4 4 4 4 4
7 7 8 7 8 8 8 8 8 8 8 8 8 8 8 7 7 7 7 6 6 6 6 6 6 6 6 6 5 5 5 5 5 5 5 4 4 4 4 4 4 4 4
7 7 7 7 8 7 8 8 7 8 8 7 8 7 7 7 7 7 6 6 6 6 6 6 6 6 6 6 5 5 5 5 5 4 4 4 4 4 4 5 4 4 3
6 7 6 7 7 7 7 7 7 7 7 7 7 7 7 7 7 6 6 6 6 6 6 6 6 6 6 5 5 5 5 5 4 5 4 4 4 4 4 3 4 3 3
6 6 6 6 6 6 6 6 6 6 6 6 6 6 6 6 6 6 6 6 6 6 6 5 5 5 5 5 5 5 5 5 4 4 5 4 4 4 3 3 3 3 3
5 5 6 6 6 6 6 6 6 6 6 6 6 6 6 6 6 6 6 6 6 6 6 5 5 5 5 5 4 4 5 5 5 4 4 4 4 4 3 3 3 3 3
5 5 5 5 6 5 6 6 6 6 6 6 6 6 6 6 5 6 6 6 6 5 5 5 5 5 5 5 4 4 4 4 4 4 3 3 4 4 3 3 3 3 3
5 5 5 5 5 5 5 5 6 6 6 5 5 5 5 5 5 5 5 5 5 5 5 5 5 5 5 5 5 4 4 3 3 4 3 3 3 3 3 3 3 2 2
5 5 5 5 5 5 5 5 5 5 5 5 5 5 5 5 5 5 5 5 5 5 5 5 5 5 5 5 4 4 4 4 4 3 3 3 2 2 1 2 2 2 1
3 4 5 4 4 4 4 4 5 4 4 5 4 4 4 5 4 4 4 4 5 5 5 5 5 5 5 5 4 4 4 4 4 3 3 3 2 1 -1 1 1 1 1
Height
3173 3174 3174 3174 3174 3175 3175 3176 3177 3177 3178 3177 3178 3179 3179 3179 3179 3181 3182 3183 3184 3185 3186 3187 3187 3187 3187 3188 3188 3188 3188 3187 3187 3187 3186 3186 3185 3185 3184 3184 3183 3182 3182
3173 3174 3175 3174 3175 3176 3177 3177 3178 3179 3180 3179 3179 3180 3181 3181 3182 3183 3183 3184 3185 3186 3187 3188 3189 3189 3189 3190 3190 3190 3190 3189 3189 3189 3188 3188 3187 3187 3186 3185 3184 3184 3183
3174 3175 3175 3175 3176 3177 3178 3178 3179 3180 3181 3181 3182 3182 3182 3183 3184 3185 3185 3186 3187 3188 3190 3190 3191 3191 3191 3192 3192 3192 3192 3191 3191 3191 3191 3189 3189 3188 3187 3186 3186 3185 3184
3174 3175 3176 3176 3177 3178 3179 3180 3181 3182 3183 3183 3184 3184 3184 3186 3186 3187 3188 3189 3190 3191 3192 3193 3193 3194 3194 3194 3194 3194 3194 3193 3193 3192 3192 3191 3191 3190 3189 3188 3187 3186 3185
3173 3175 3176 3177 3178 3180 3181 3182 3183 3184 3185 3185 3186 3187 3187 3188 3189 3190 3191 3191 3192 3194 3195 3195 3195 3196 3196 3197 3196 3196 3196 3195 3195 3194 3194 3193 3192 3191 3190 3190 3188 3187 3186
3173 3175 3176 3177 3179 3181 3182 3184 3185 3186 3186 3187 3188 3189 3190 3191 3192 3193 3193 3194 3195 3196 3197 3197 3198 3198 3198 3198 3198 3198 3198 3197 3197 3196 3195 3195 3194 3193 3192 3191 3190 3188 3187
3172 3175 3177 3177 3179 3181 3183 3185 3186 3187 3188 3189 3190 3191 3192 3193 3194 3195 3196 3197 3198 3198 3199 3199 3200 3200 3201 3201 3201 3200 3200 3199 3199 3198 3197 3197 3196 3195 3194 3193 3191 3190 3188
3171 3175 3177 3178 3179 3181 3183 3186 3187 3189 3190 3191 3192 3194 3195 3196 3197 3197 3198 3199 3200 3201 3201 3202 3202 3203 3203 3202 3202 3202 3201 3201 3200 3199 3199 3198 3197 3196 3195 3194 3192 3191 3189
3170 3174 3177 3178 3179 3181 3183 3185 3188 3190 3191 3193 3194 3196 3197 3198 3199 3200 3201 3201 3202 3203 3203 3204 3204 3204 3204 3204 3204 3203 3202 3202 3201 3200 3200 3198 3197 3196 3195 3194 3193 3192 3190
3169 3172 3175 3178 3180 3182 3184 3186 3188 3190 3192 3193 3196 3197 3199 3200 3201 3202 3203 3203 3204 3204 3204 3205 3205 3205 3205 3204 3204 3203 3202 3202 3201 3200 3199 3198 3197 3196 3195 3194 3193 3191 3189
3167 3171 3174 3177 3180 3182 3184 3186 3188 3190 3192 3194 3195 3197 3199 3200 3201 3203 3203 3204 3205 3205 3205 3205 3205 3205 3205 3204 3204 3203 3202 3201 3200 3199 3198 3197 3196 3195 3194 3192 3191 3190 3189
3165 3168 3172 3175 3178 3182 3184 3186 3188 3190 3192 3194 3196 3197 3199 3200 3201 3202 3203 3204 3204 3205 3205 3205 3205 3205 3204 3204 3203 3202 3201 3200 3199 3197 3197 3195 3194 3193 3192 3190 3189 3188 3187
3162 3165 3169 3173 3177 3180 3183 3185 3187 3189 3191 3193 3194 3196 3197 3198 3200 3201 3202 3203 3203 3204 3203 3203 3203 3203 3203 3202 3202 3201 3200 3198 3197 3196 3195 3193 3192 3191 3189 3188 3187 3185 3184
3166 3165 3168 3171 3175 3178 3181 3183 3186 3187 3190 3192 3193 3194 3195 3197 3198 3199 3200 3201 3201 3201 3201 3202 3201 3201 3200 3199 3199 3198 3197 3196 3195 3194 3193 3192 3190 3189 3187 3185 3184 3182 3181
3162 3163 3166 3168 3172 3176 3179 3181 3183 3185 3187 3189 3191 3192 3193 3194 3196 3197 3197 3198 3198 3199 3198 3198 3198 3197 3197 3196 3196 3195 3194 3194 3193 3192 3190 3189 3187 3186 3184 3182 3180 3179 3177
3158 3161 3164 3166 3169 3172 3176 3178 3180 3182 3185 3186 3188 3189 3191 3192 3193 3194 3194 3195 3195 3195 3195 3195 3195 3194 3194 3193 3192 3191 3191 3190 3189 3188 3187 3185 3184 3182 3180 3178 3176 3174 3172
3156 3159 3161 3164 3166 3169 3172 3174 3177 3179 3181 3183 3185 3187 3187 3189 3190 3191 3191 3192 3192 3192 3192 3192 3192 3191 3190 3189 3188 3187 3187 3186 3185 3183 3181 3180 3180 3178 3176 3174 3171 3169 3166
3153 3156 3159 3161 3164 3167 3168 3170 3173 3175 3178 3179 3181 3183 3184 3185 3186 3187 3188 3188 3188 3189 3189 3188 3187 3187 3186 3185 3184 3183 3182 3181 3180 3179 3178 3176 3173 3172 3171 3169 3166 3163 3161
3150 3153 3155 3157 3160 3163 3164 3166 3169 3171 3173 3175 3177 3179 3180 3181 3183 3184 3184 3185 3185 3184 3184 3184 3183 3182 3181 3180 3179 3178 3177 3176 3175 3173 3172 3170 3168 3164 3162 3161 3160 3158 3156
3145 3148 3152 3155 3156 3158 3160 3161 3164 3166 3168 3172 3173 3175 3176 3177 3178 3180 3180 3180 3180 3180 3180 3179 3178 3177 3176 3175 3173 3172 3171 3170 3168 3167 3167 3165 3162 3159 3157 3155 3153 3152 3150
3142 3145 3148 3150 3153 3155 3157 3159 3161 3163 3166 3167 3170 3171 3172 3173 3174 3175 3175 3175 3175 3175 3175 3174 3172 3171 3170 3169 3167 3166 3164 3163 3162 3161 3160 3158 3157 3154 3152 3150 3148 3145 3143
3138 3141 3143 3147 3150 3152 3154 3156 3158 3160 3162 3163 3166 3166 3168 3169 3169 3169 3170 3171 3170 3169 3169 3169 3167 3166 3164 3164 3160 3158 3154 3156 3157 3154 3153 3152 3150 3147 3145 3145 3141 3139 3137
3134 3137 3141 3143 3146 3148 3149 3151 3153 3156 3158 3159 3160 3162 3163 3164 3164 3164 3164 3164 3164 3163 3163 3162 3161 3159 3158 3157 3156 3153 3148 3146 3147 3146 3144 3143 3143 3142 3139 3138 3134 3133 3131
3129 3132 3136 3138 3141 3143 3146 3148 3150 3152 3153 3154 3155 3157 3158 3159 3158 3158 3158 3158 3158 3157 3156 3156 3155 3153 3150 3148 3148 3147 3144 3142 3138 3137 3139 3137 3137 3135 3134 3131 3129 3126 3125
3121 3127 3130 3133 3135 3137 3140 3142 3145 3147 3148 3150 3150 3151 3152 3153 3153 3153 3152 3152 3151 3150 3149 3148 3147 3145 3143 3140 3138 3138 3137 3135 3134 3132 3129 3133 3128 3127 3126 3125 3123 3121 3118
3116 3120 3123 3127 3129 3132 3134 3136 3139 3140 3143 3144 3145 3145 3145 3146 3146 3146 3146 3145 3143 3142 3141 3139 3138 3136 3134 3132 3130 3129 3128 3127 3127 3126 3123 3123 3122 3121 3119 3115 3116 3114 3110
Wind_Speed
8 9 9 11 12 12 12 13 13 13 12 13 15 15 16 16 16 15 14 14 13 9 7 3 5 8 10 11 11 11 12 12 13 12 12 12 12 12 12 11 11 11 10
7 11 11 12 14 14 14 14 14 13 13 14 15 15 16 16 17 15 13 11 10 8 6 7 10 12 13 14 13 13 13 14 14 14 13 14 14 14 13 12 12 11 11
9 13 14 15 16 16 16 15 15 14 14 15 15 16 16 16 16 16 15 14 13 12 12 13 14 15 15 15 14 13 13 13 14 10 11 14 13 12 13 13 13 11 11
13 15 17 19 19 18 16 16 16 15 15 15 16 17 18 17 17 17 16 16 16 15 15 16 16 15 15 14 13 13 13 14 13 13 15 15 14 14 14 13 13 12 12
16 17 17 19 20 20 19 17 16 15 16 16 16 17 18 18 18 18 18 18 18 17 16 15 16 14 14 13 13 13 13 15 14 15 15 15 15 16 15 15 14 14 13
18 17 18 19 20 20 20 20 19 16 16 16 16 16 17 16 16 16 17 17 16 15 15 14 14 13 13 13 13 14 14 15 14 16 16 17 17 17 17 16 15 15 15
19 18 18 18 18 19 19 19 19 19 18 17 15 15 15 15 15 15 15 14 13 13 13 13 13 13 14 15 15 15 15 16 16 17 17 18 18 19 19 18 18 17 16
23 20 19 17 17 18 16 16 16 17 18 19 18 16 16 16 15 15 15 14 14 14 14 14 14 14 14 13 13 12 12 13 13 15 15 15 16 17 17 17 18 18 18
26 22 20 16 17 16 15 14 13 13 13 14 15 16 15 15 15 15 14 13 12 12 11 11 11 11 10 10 10 9 10 12 12 13 13 15 16 16 16 17 17 17 17
28 26 22 19 16 15 14 12 11 9 9 9 8 9 10 10 10 9 8 8 7 6 5 4 4 5 5 6 8 9 11 12 13 14 15 16 17 18 18 18 18 18 17
31 28 25 22 19 17 16 13 11 10 7 5 4 3 3 3 3 2 2 1 1 2 3 5 6 7 8 10 11 13 13 15 15 16 16 17 18 18 19 19 19 19 19
33 31 28 25 22 19 17 15 14 12 10 8 6 5 4 3 4 3 5 6 6 8 9 10 11 12 12 13 14 15 16 16 17 18 17 18 19 19 19 20 20 20 20
29 32 30 26 23 22 20 18 16 14 13 11 10 9 8 8 9 9 10 11 12 13 13 14 14 15 15 16 16 16 16 18 19 18 18 19 20 21 20 20 21 21 21
32 27 29 28 27 24 22 21 19 18 16 15 13 13 12 12 12 13 13 14 15 16 16 16 17 17 17 18 18 18 19 18 19 19 19 20 21 21 21 21 21 22 23
31 29 28 29 29 27 25 24 23 21 19 18 17 17 16 15 15 15 15 15 15 17 18 18 18 19 19 19 20 20 20 19 19 20 21 21 21 23 23 24 25 25 25
27 27 27 27 28 28 27 26 25 24 23 23 21 20 18 18 16 15 15 16 16 16 18 19 19 20 20 21 21 20 20 21 22 23 24 23 24 25 26 27 29 30 30
23 26 24 25 25 27 27 27 26 27 25 24 23 21 20 18 16 15 16 17 17 17 19 20 20 21 21 21 22 22 23 24 25 26 28 29 28 28 28 30 32 33 32
27 26 26 25 24 23 24 26 26 27 26 24 23 22 20 17 16 15 17 19 20 20 21 23 23 23 23 23 24 25 26 27 28 27 28 30 33 33 31 31 32 32 30
28 27 25 25 28 28 29 28 26 27 26 24 22 20 18 17 17 18 20 22 23 24 25 25 26 26 25 26 26 27 28 29 30 32 32 34 35 35 36 32 30 30 28
27 29 27 27 25 25 25 24 24 24 23 20 19 18 18 19 21 22 23 25 25 27 27 27 28 28 27 28 30 31 32 32 32 33 33 34 34 34 33 32 31 29 29
29 30 30 29 26 26 24 22 21 20 20 20 20 21 21 23 24 25 25 26 27 27 27 28 29 29 30 31 33 34 35 34 33 34 35 34 32 30 29 29 29 29 27
30 30 30 30 29 28 26 25 24 23 23 22 22 22 23 23 25 25 26 27 29 30 30 30 31 32 33 32 35 37 40 37 33 35 34 33 32 30 30 27 27 27 27
31 31 30 31 30 31 29 27 27 25 24 24 25 24 25 25 27 28 29 30 31 32 32 32 33 35 36 36 36 38 39 40 37 35 34 33 32 31 32 30 30 29 29
33 35 33 33 33 33 31 30 28 27 27 27 27 27 26 27 29 30 32 32 33 34 34 35 36 37 39 40 38 36 36 36 36 36 31 32 32 31 31 32 30 31 29
42 37 36 36 35 33 32 32 29 28 28 27 29 30 31 30 32 32 32 34 35 36 37 38 39 39 39 39 36 34 33 33 34 34 36 31 34 35 30 31 30 29 29
37 34 39 38 37 35 32 31 31 32 30 31 30 31 32 33 34 34 34 35 37 38 38 39 39 38 37 36 35 34 34 35 33 33 35 34 33 30 30 35 34 28 28
Wind_Direction
133 139 147 138 130 124 119 116 110 106 105 102 101 98 94 94 102 118 127 130 134 142 140 117 68 73 77 73 70 66 64 62 60 59 55 57 54 52 51 50 49 47 47
129 140 140 131 124 119 116 112 105 102 100 99 101 99 96 96 96 101 111 126 126 126 122 102 92 87 79 76 72 68 66 65 63 58 56 56 53 50 46 43 44 42 40
137 132 126 121 115 114 111 106 104 102 100 102 104 102 101 99 98 98 99 101 104 104 104 99 92 88 83 79 73 67 62 59 58 51 51 48 42 41 37 34 32 31 27
140 129 120 111 106 105 103 104 103 102 100 101 102 101 100 99 98 97 97 98 98 99 100 96 93 88 83 77 71 65 59 53 48 46 48 48 42 39 37 32 28 23 22
146 133 121 110 104 100 97 97 99 99 99 100 100 101 100 99 98 97 96 95 95 96 95 93 90 85 79 74 69 62 57 55 47 50 46 44 40 37 35 31 25 19 17
155 144 130 119 112 103 96 91 90 93 97 97 100 100 100 99 98 97 95 94 94 94 93 91 88 85 80 72 65 59 54 51 49 49 45 41 38 34 30 26 23 20 16
158 155 143 133 124 114 106 99 91 87 89 93 95 97 98 98 97 95 94 95 95 94 90 86 82 76 70 67 62 58 54 51 41 44 40 35 33 30 28 24 20 18 16
166 166 158 150 137 129 120 111 101 94 87 84 86 87 89 89 88 89 89 90 87 84 80 77 74 70 65 59 52 44 37 32 24 25 20 19 15 13 11 9 9 9 10
174 175 170 167 153 144 137 128 116 105 96 89 83 81 80 81 80 78 80 81 80 77 73 66 59 52 46 39 28 15 9 4 360 358 5 359 360 357 355 354 353 352 354
180 182 182 177 172 160 152 144 135 121 107 101 89 80 75 75 77 78 75 68 71 70 66 60 43 25 11 358 348 341 341 339 340 340 345 344 342 340 338 338 336 337 341
185 188 187 187 186 179 172 166 159 155 150 142 129 102 68 67 75 70 52 42 341 323 302 308 317 317 318 319 319 321 322 324 326 330 336 335 333 332 330 328 327 327 325
191 190 194 194 196 195 189 189 184 185 190 191 200 211 241 266 281 265 280 284 282 288 291 292 296 299 302 305 309 309 312 316 319 323 329 329 328 327 326 325 323 321 319
197 195 199 201 204 207 204 207 206 208 218 222 225 235 251 267 275 280 282 288 289 289 289 290 290 293 296 299 300 301 305 311 315 318 322 323 325 325 324 324 323 319 317
219 207 203 211 213 215 214 219 220 224 230 238 242 244 255 266 271 279 284 288 289 290 292 292 292 292 293 296 298 301 305 308 310 313 317 320 322 320 320 319 320 318 317
216 220 216 218 221 221 224 225 230 234 239 244 249 254 259 265 272 279 287 293 294 295 295 295 295 295 296 296 296 299 302 304 305 308 312 316 318 316 315 315 315 314 313
221 225 225 228 231 230 230 232 234 239 243 249 252 256 262 267 270 277 286 292 295 297 298 298 298 296 297 299 300 301 302 303 305 307 309 311 312 312 311 311 312 311 312
221 224 228 231 232 235 236 237 238 242 246 250 257 255 257 262 266 275 284 289 293 296 298 302 303 301 300 301 302 301 300 301 302 304 307 308 307 308 308 308 309 309 308
230 229 229 233 236 239 240 241 240 247 248 250 253 254 254 255 266 276 282 288 292 294 297 300 302 300 298 297 297 297 298 300 301 299 300 304 306 307 305 305 305 304 304
231 236 235 238 244 243 247 247 245 246 245 245 246 247 248 255 266 274 279 285 289 293 296 297 296 297 296 297 298 298 298 300 300 299 305 306 306 307 307 308 302 302 300
232 234 234 238 240 241 240 239 238 237 235 237 238 242 250 258 267 274 280 285 288 290 293 294 294 295 295 296 294 294 295 296 295 295 302 302 304 303 305 303 302 298 298
234 237 236 235 234 236 233 232 229 231 233 231 239 247 256 265 274 279 281 284 287 288 289 291 291 292 292 292 292 292 291 290 293 295 297 302 301 301 301 303 300 297 297
235 236 238 235 232 234 233 232 232 233 236 243 249 256 265 269 274 279 281 283 285 287 288 289 288 289 290 290 290 293 293 293 293 292 293 295 299 300 298 301 296 295 296
243 239 239 239 235 235 239 239 240 243 245 249 252 257 263 271 275 276 279 281 283 285 287 288 289 289 290 290 290 291 292 294 297 296 299 298 298 296 296 299 294 295 293
252 243 239 239 237 238 239 242 241 242 247 252 262 267 270 269 274 278 280 283 284 285 286 286 286 288 289 290 290 288 287 287 290 293 292 292 292 290 290 288 291 291 290
246 243 244 241 238 237 239 242 244 250 257 264 269 269 271 273 275 277 279 281 283 284 285 286 286 286 286 287 288 287 285 284 284 288 289 288 290 293 289 293 290 290 294
238 240 240 240 237 235 235 242 249 263 273 270 272 274 276 276 275 277 280 282 282 283 285 285 285 285 285 285 285 285 285 284 285 283 283 288 287 289 287 283 299 292 291